Oakland, CA

4:25 PM PDT on June 20, 2018 (GMT -0700)
Metro Oakland International

Weather History for KOAK - October, 2017

Change the Weather History Date:

Tuesday, October 10, 2017

  Actual Average Record
Temperature  
Mean Temperature 63 °F 62 °F  
Max Temperature 76 °F 71 °F 87 °F (1958)
Min Temperature 50 °F 52 °F 46 °F (2004)
Degree Days  
Heating Degree Days 2 4  
Month to date heating degree days 19 35  
Since 1 July heating degree days 92 235  
Cooling Degree Days 0 1  
Month to date cooling degree days 1 10  
Year to date cooling degree days 291 135  
Growing Degree Days 14 (Base 50)    
Moisture  
Dew Point 49 °F    
Average Humidity 67    
Maximum Humidity 100    
Minimum Humidity 33    
Precipitation  
Precipitation 0.00 in 0.03 in 1.16 in (1975)
Month to date precipitation 0.00 0.23  
Year to date precipitation 20.12 13.73  
Sea Level Pressure  
Sea Level Pressure 29.92 in    
Wind  
Wind Speed 6 mph (WNW)    
Max Wind Speed 16 mph    
Max Gust Speed 19 mph    
Visibility 9 miles    
Events      
T = Trace of Precipitation, MM = Missing Value Source: NWS Daily Summary

Daily Weather History Graph

Daily Weather History Graph

Search for Another Location

Airport or City:

Astronomy

Oct. 10, 2017 Rise Set
Actual Time 7:12 AM PDT 6:38 PM PDT
Civil Twilight 6:46 AM PDT 7:04 PM PDT
Nautical Twilight 6:16 AM PDT 7:34 PM PDT
Astronomical Twilight 5:45 AM PDT 8:04 PM PDT
Moon 10:51 PM PDT (10/10) 12:30 PM PDT (10/10)
Length of Visible Light 12h 17m
Length of Day
11h 25m
Waning Gibbous, 70% of the Moon is Illuminated
Oct 10
Waning Gibbous
Oct 12
Last Quarter
Oct 19
New
Oct 27
First Quarter
Nov 3
Full

Hourly Weather History & Observations

Time (PDT) Temp. Dew Point Humidity Pressure Visibility Wind Dir Wind Speed Gust Speed Precip Events Conditions
12:53 AM 60.1 °F 44.1 °F 55% 29.94 in 10.0 mi Calm Calm - N/A   Scattered Clouds
1:53 AM 57.0 °F 44.1 °F 62% 29.94 in 10.0 mi Calm Calm - N/A   Clear
2:53 AM 57.9 °F 45.0 °F 62% 29.94 in 10.0 mi Calm Calm - N/A   Clear
3:53 AM 54.0 °F 48.9 °F 83% 29.94 in 10.0 mi Calm Calm - N/A   Clear
4:53 AM 55.0 °F 46.9 °F 74% 29.93 in 10.0 mi Calm Calm - N/A   Partly Cloudy
5:53 AM 53.1 °F 44.1 °F 71% 29.93 in 10.0 mi SE 5.8 mph - N/A   Partly Cloudy
6:53 AM 52.0 °F 39.9 °F 63% 29.94 in 10.0 mi Calm Calm - N/A   Scattered Clouds
7:53 AM 54.0 °F 43.0 °F 66% 29.94 in 10.0 mi Calm Calm - N/A   Partly Cloudy
8:53 AM 61.0 °F 44.1 °F 54% 29.95 in 10.0 mi Calm Calm - N/A   Scattered Clouds
9:53 AM 64.9 °F 45.0 °F 48% 29.95 in 10.0 mi WNW 4.6 mph - N/A   Scattered Clouds
10:53 AM 68.0 °F 46.9 °F 47% 29.94 in 10.0 mi WNW 6.9 mph - N/A   Scattered Clouds
11:53 AM 70.0 °F 46.9 °F 44% 29.93 in 6.0 mi WNW 9.2 mph - N/A   Haze
12:53 PM 73.9 °F 42.1 °F 32% 29.93 in 5.0 mi NW 8.1 mph - N/A   Haze
1:53 PM 75.0 °F 46.9 °F 37% 29.90 in 6.0 mi WNW 10.4 mph - N/A   Haze
2:53 PM 69.1 °F 54.0 °F 58% 29.89 in 9.0 mi WNW 13.8 mph - N/A   Overcast
3:53 PM 66.0 °F 55.0 °F 68% 29.89 in 8.0 mi WNW 11.5 mph - N/A   Overcast
4:53 PM 64.9 °F 55.0 °F 70% 29.88 in 8.0 mi WNW 10.4 mph - N/A   Overcast
5:53 PM 63.0 °F 54.0 °F 72% 29.88 in 7.0 mi WNW 10.4 mph - N/A   Overcast
6:53 PM 59.0 °F 53.1 °F 81% 29.90 in 7.0 mi WNW 11.5 mph - N/A   Mostly Cloudy
7:53 PM 57.9 °F 53.1 °F 84% 29.91 in 9.0 mi WNW 13.8 mph - N/A   Mostly Cloudy
8:35 PM 55.0 °F 53.1 °F 93% 29.91 in 10.0 mi West 12.7 mph - N/A   Mostly Cloudy
8:53 PM 54.0 °F 53.1 °F 97% 29.91 in 10.0 mi West 13.8 mph - N/A   Mostly Cloudy
9:53 PM 54.0 °F 52.0 °F 93% 29.92 in 10.0 mi WNW 10.4 mph - N/A   Mostly Cloudy
10:53 PM 54.0 °F 53.1 °F 97% 29.92 in 8.0 mi West 4.6 mph - N/A   Partly Cloudy
11:53 PM 51.1 °F 50.0 °F 96% 29.93 in 6.0 mi Calm Calm - N/A   Scattered Clouds